| time (UTC) | temp F | wind direction | speed MPH | gust MPH | rain 1hr in | rain 24hr in | rain mn in | humidity % | barometer mb |
| 20260903033936 | 59 | 0.0 | 0.0 | 0.00 | 0.00 | 0.00 | 68 | 1021.2 | |
| 20260903031712 | 57 | 0.0 | 0.0 | 0.00 | 0.00 | 0.00 | 70 | 1021.3 | |
| 20260903030712 | 58 | 0.0 | 0.0 | 0.00 | 0.00 | 0.00 | 69 | 1021.2 | |
| 20260903024448 | 59 | 0.0 | 0.0 | 0.00 | 0.00 | 0.00 | 67 | 1021.2 | |
| 20260903022224 | 58 | 0.0 | 0.0 | 0.00 | 0.00 | 0.00 | 68 | 1021.2 | |
| 20260903021224 | 58 | 0.0 | 0.0 | 0.00 | 0.00 | 0.00 | 67 | 1021.4 | |
| 20260903020224 | 59 | 0.0 | 0.0 | 0.00 | 0.00 | 0.00 | 67 | 1021.4 | |
| 20260903015224 | 59 | 0.0 | 0.0 | 0.00 | 0.00 | 0.00 | 66 | 1021.3 | |
| 20260903014224 | 59 | 0.0 | 0.0 | 0.00 | 0.00 | 0.00 | 66 | 1021.3 | |
| 20260903013224 | 59 | 0.0 | 0.0 | 0.00 | 0.00 | 0.00 | 64 | 1021.3 | |
| 20260903012224 | 60 | 0.0 | 0.0 | 0.00 | 0.00 | 0.00 | 64 | 1021.4 | |
| 20260903011224 | 60 | 0.0 | 0.0 | 0.00 | 0.00 | 0.00 | 65 | 1021.3 | |
| 20260903010224 | 59 | 0.0 | 0.0 | 0.00 | 0.00 | 0.00 | 64 | 1021.3 | |
| 20260903005224 | 59 | 0.0 | 0.0 | 0.00 | 0.00 | 0.00 | 66 | 1021.3 | |
| 20260903004224 | 59 | 0.0 | 0.0 | 0.00 | 0.00 | 0.00 | 65 | 1021.3 | |
| 20260903003224 | 59 | 0.0 | 0.0 | 0.00 | 0.00 | 0.00 | 64 | 1021.3 | |
| 20260903002224 | 59 | 0.0 | 0.0 | 0.00 | 0.00 | 0.00 | 63 | 1021.2 | |
| 20260903001224 | 60 | 0.0 | 0.0 | 0.00 | 0.00 | 0.00 | 62 | 1021.3 | |
| 20260903000226 | 59 | 0.0 | 0.0 | 0.00 | 0.00 | 0.00 | 62 | 1021.3 | |
| 20260902235224 | 59 | 0.0 | 0.0 | 0.00 | 0.00 | 0.00 | 62 | 1021.3 | |
| 20260902234224 | 60 | 0.0 | 0.0 | 0.00 | 0.00 | 0.00 | 60 | 1021.4 | |
| 20260902232000 | 61 | 0.0 | 0.0 | 0.00 | 0.00 | 0.00 | 56 | 1021.5 | |
| 20260902225737 | 62 | 0.0 | 0.0 | 0.00 | 0.00 | 0.00 | 54 | 1021.4 | |
| 20260902224737 | 63 | 0.0 | 0.0 | 0.00 | 0.00 | 0.00 | 52 | 1021.4 | |
| 20260902222514 | 63 | 0.0 | 0.0 | 0.00 | 0.00 | 0.00 | 52 | 1021.5 | |
| 20260902221513 | 64 | 0.0 | 0.0 | 0.00 | 0.00 | 0.00 | 52 | 1021.5 | |
| 20260902214026 | 64 | 0.0 | 0.0 | 0.00 | 0.00 | 0.00 | 55 | 1021.5 | |
| 20260902213026 | 64 | 0.0 | 0.0 | 0.00 | 0.00 | 0.00 | 57 | 1021.5 | |
| 20260902212027 | 64 | 0.0 | 0.0 | 0.00 | 0.00 | 0.00 | 56 | 1021.4 | |
| 20260902205803 | 65 | 0.0 | 0.0 | 0.00 | 0.00 | 0.00 | 53 | 1021.3 | |
| 20260902203539 | 65 | 0.0 | 0.0 | 0.00 | 0.00 | 0.00 | 55 | 1021.1 | |
| 20260902202539 | 65 | 0.0 | 0.0 | 0.00 | 0.00 | 0.00 | 56 | 1021.1 | |
| 20260902201539 | 64 | 0.0 | 0.0 | 0.00 | 0.00 | 0.00 | 56 | 1021.1 | |
| 20260902200539 | 64 | 0.0 | 0.0 | 0.00 | 0.00 | 0.00 | 57 | 1021.1 | |
| 20260902195539 | 64 | 0.0 | 0.0 | 0.00 | 0.00 | 0.00 | 57 | 1021.0 | |
| 20260902193316 | 65 | 0.0 | 0.0 | 0.00 | 0.00 | 0.00 | 51 | 1021.0 | |
| 20260902192316 | 65 | 0.0 | 0.0 | 0.00 | 0.00 | 0.00 | 45 | 1021.0 | |
| 20260902190051 | 66 | 0.0 | 0.0 | 0.00 | 0.00 | 0.00 | 43 | 1021.0 | |
| 20260902185051 | 66 | 0.0 | 0.0 | 0.00 | 0.00 | 0.00 | 43 | 1021.0 | |
| 20260902184051 | 66 | 0.0 | 0.0 | 0.00 | 0.00 | 0.00 | 43 | 1021.1 | |
| 20260902183051 | 66 | 0.0 | 0.0 | 0.00 | 0.00 | 0.00 | 43 | 1021.0 | |
| 20260902182055 | 66 | 0.0 | 0.0 | 0.00 | 0.00 | 0.00 | 42 | 1020.9 | |
| 20260902181051 | 66 | 0.0 | 0.0 | 0.00 | 0.00 | 0.00 | 42 | 1020.8 | |
| 20260902180051 | 67 | 0.0 | 0.0 | 0.00 | 0.00 | 0.00 | 41 | 1020.8 | |
| 20260902175051 | 67 | 0.0 | 0.0 | 0.00 | 0.00 | 0.00 | 41 | 1020.7 | |
| 20260902174051 | 67 | 0.0 | 0.0 | 0.00 | 0.00 | 0.00 | 40 | 1020.7 | |
| 20260902173051 | 67 | 0.0 | 0.0 | 0.00 | 0.00 | 0.00 | 40 | 1020.6 | |
| 20260902172052 | 68 | 0.0 | 0.0 | 0.00 | 0.00 | 0.00 | 40 | 1020.6 | |
| 20260902171051 | 68 | 0.0 | 0.0 | 0.00 | 0.00 | 0.00 | 38 | 1020.6 | |
| 20260902170057 | 70 | 0.0 | 0.0 | 0.00 | 0.00 | 0.00 | 35 | 1020.5 | |
| 20260902162604 | 70 | 0.0 | 0.0 | 0.00 | 0.00 | 0.00 | 34 | 1020.4 | |
| 20260902160341 | 72 | 0.0 | 0.0 | 0.00 | 0.00 | 0.00 | 33 | 1020.4 | |
| 20260902155341 | 71 | 0.0 | 0.0 | 0.00 | 0.00 | 0.00 | 34 | 1020.5 | |
| 20260902153116 | 71 | 0.0 | 0.0 | 0.00 | 0.00 | 0.00 | 32 | 1020.4 | |
| 20260902152117 | 72 | 0.0 | 0.0 | 0.00 | 0.00 | 0.00 | 30 | 1020.5 | |
| 20260902151116 | 74 | 0.0 | 0.0 | 0.00 | 0.00 | 0.00 | 32 | 1020.6 | |
| 20260902150117 | 73 | 0.0 | 0.0 | 0.00 | 0.00 | 0.00 | 34 | 1020.6 | |
| 20260902145116 | 72 | 0.0 | 0.0 | 0.00 | 0.00 | 0.00 | 35 | 1020.6 | |
| 20260902144116 | 72 | 0.0 | 0.0 | 0.00 | 0.00 | 0.00 | 36 | 1020.7 | |
| 20260902143117 | 71 | 0.0 | 0.0 | 0.00 | 0.00 | 0.00 | 38 | 1020.8 | |
| 20260902142116 | 71 | 0.0 | 0.0 | 0.00 | 0.00 | 0.00 | 38 | 1020.8 | |
| 20260902141116 | 71 | 0.0 | 0.0 | 0.00 | 0.00 | 0.00 | 36 | 1020.8 | |
| 20260902140116 | 71 | 0.0 | 0.0 | 0.00 | 0.00 | 0.00 | 37 | 1020.8 | |
| 20260902135116 | 72 | 0.0 | 0.0 | 0.00 | 0.00 | 0.00 | 36 | 1020.8 | |
| 20260902134116 | 71 | 0.0 | 0.0 | 0.00 | 0.00 | 0.00 | 37 | 1020.8 | |
| 20260902133116 | 71 | 0.0 | 0.0 | 0.00 | 0.00 | 0.00 | 36 | 1020.8 | |
| 20260902132116 | 71 | 0.0 | 0.0 | 0.00 | 0.00 | 0.00 | 35 | 1020.9 | |
| 20260902125851 | 73 | 0.0 | 0.0 | 0.00 | 0.00 | 0.00 | 36 | 1021.1 | |
| 20260902124851 | 71 | 0.0 | 0.0 | 0.00 | 0.00 | 0.00 | 36 | 1021.2 | |
| 20260902123851 | 73 | 0.0 | 0.0 | 0.00 | 0.00 | 0.00 | 35 | 1021.2 | |
| 20260902122851 | 71 | 0.0 | 0.0 | 0.00 | 0.00 | 0.00 | 36 | 1021.3 | |
| 20260902121850 | 71 | 0.0 | 0.0 | 0.00 | 0.00 | 0.00 | 34 | 1021.4 | |
| 20260902115627 | 75 | 0.0 | 0.0 | 0.00 | 0.00 | 0.00 | 33 | 1021.5 | |
| 20260902114627 | 74 | 0.0 | 0.0 | 0.00 | 0.00 | 0.00 | 35 | 1021.6 | |
| 20260902113627 | 73 | 0.0 | 0.0 | 0.00 | 0.00 | 0.00 | 37 | 1021.7 | |
| 20260902112627 | 72 | 0.0 | 0.0 | 0.00 | 0.00 | 0.00 | 42 | 1021.8 | |
| 20260902110404 | 71 | 0.0 | 0.0 | 0.00 | 0.00 | 0.00 | 36 | 1022.0 | |
| 20260902105404 | 70 | 0.0 | 0.0 | 0.00 | 0.00 | 0.00 | 40 | 1022.0 | |
| 20260902103140 | 71 | 0.0 | 0.0 | 0.00 | 0.00 | 0.00 | 40 | 1022.0 | |
| 20260902102140 | 72 | 0.0 | 0.0 | 0.00 | 0.00 | 0.00 | 39 | 1022.2 | |
| 20260902101140 | 69 | 0.0 | 0.0 | 0.00 | 0.00 | 0.00 | 40 | 1022.2 | |
| 20260902100140 | 71 | 0.0 | 0.0 | 0.00 | 0.00 | 0.00 | 39 | 1022.4 | |
| 20260902093916 | 73 | 0.0 | 0.0 | 0.00 | 0.00 | 0.00 | 36 | 1022.5 | |
| 20260902092916 | 69 | 0.0 | 0.0 | 0.00 | 0.00 | 0.00 | 41 | 1022.5 | |
| 20260902091916 | 72 | 0.0 | 0.0 | 0.00 | 0.00 | 0.00 | 41 | 1022.4 | |
| 20260902090916 | 68 | 0.0 | 0.0 | 0.00 | 0.00 | 0.00 | 44 | 1022.5 | |
| 20260902085916 | 69 | 0.0 | 0.0 | 0.00 | 0.00 | 0.00 | 44 | 1022.7 | |
| 20260902084916 | 68 | 0.0 | 0.0 | 0.00 | 0.00 | 0.00 | 46 | 1022.8 | |
| 20260902083916 | 68 | 0.0 | 0.0 | 0.00 | 0.00 | 0.00 | 47 | 1022.8 | |
| 20260902080429 | 65 | 0.0 | 0.0 | 0.00 | 0.00 | 0.00 | 52 | 1022.9 | |
| 20260902075428 | 65 | 0.0 | 0.0 | 0.00 | 0.00 | 0.00 | 54 | 1022.8 | |
| 20260902074428 | 63 | 0.0 | 0.0 | 0.00 | 0.00 | 0.00 | 56 | 1022.8 | |
| 20260902073428 | 63 | 0.0 | 0.0 | 0.00 | 0.00 | 0.00 | 56 | 1022.9 | |
| 20260902072428 | 64 | 0.0 | 0.0 | 0.00 | 0.00 | 0.00 | 54 | 1022.9 | |
| 20260902071428 | 66 | 0.0 | 0.0 | 0.00 | 0.00 | 0.00 | 51 | 1022.9 | |
| 20260902070429 | 64 | 0.0 | 0.0 | 0.00 | 0.00 | 0.00 | 54 | 1022.8 | |
| 20260902065428 | 63 | 0.0 | 0.0 | 0.00 | 0.00 | 0.00 | 56 | 1022.8 | |
| 20260902064428 | 62 | 0.0 | 0.0 | 0.00 | 0.00 | 0.00 | 57 | 1022.8 | |
| 20260902063428 | 62 | 0.0 | 0.0 | 0.00 | 0.00 | 0.00 | 54 | 1022.8 | |
| 20260902061205 | 63 | 0.0 | 0.0 | 0.00 | 0.00 | 0.00 | 54 | 1022.6 | |
| 20260902060205 | 61 | 0.0 | 0.0 | 0.00 | 0.00 | 0.00 | 57 | 1022.6 | |
| 20260902055205 | 62 | 0.0 | 0.0 | 0.00 | 0.00 | 0.00 | 56 | 1022.6 | |
| 20260902054205 | 61 | 0.0 | 0.0 | 0.00 | 0.00 | 0.00 | 57 | 1022.5 | |
| 20260902051941 | 60 | 0.0 | 0.0 | 0.00 | 0.00 | 0.00 | 58 | 1022.4 | |
| 20260902050941 | 60 | 0.0 | 0.0 | 0.00 | 0.00 | 0.00 | 59 | 1022.4 | |
| 20260902045942 | 59 | 0.0 | 0.0 | 0.00 | 0.00 | 0.00 | 61 | 1022.5 | |
| 20260902044942 | 58 | 0.0 | 0.0 | 0.00 | 0.00 | 0.00 | 63 | 1022.5 | |
| 20260902042717 | 58 | 0.0 | 0.0 | 0.00 | 0.00 | 0.00 | 63 | 1022.4 | |
| 20260902041718 | 58 | 0.0 | 0.0 | 0.00 | 0.00 | 0.00 | 63 | 1022.4 |